Location: Petruro
(41.0333°N, 14.7833°E)
Time: 13:09:52
(UTC+00:00)

ARIANE 5 R/B - Pass Details

Date: 20 June 2021
Orbit: 748 x 795 km, 98.7° (Epoch: 29 July)

Event Time Altitude Azimuth Distance (km) Brightness Sun altitude
Rises 01:15:16 0° 27° (NNE) 3,203 7.4 -18.5°
Reaches altitude 10° 01:18:00 10° 41° (NE) 2,275 6.2 -18.3°
Maximum altitude 01:21:59 24° 95° (E) 1,537 4.4 -17.9°
Drops below altitude 10° 01:25:58 10° 148° (SSE) 2,272 4.7 -17.4°
Enters shadow 01:26:54 - 154° (SSE) 2,576 4.9 -17.3°
